When you browse on this site, cookies collect data to enhance your experience and personalize the content and advertising you see.
Visit our Privacy Policy to learn more. By continuing to use the site, you agree to this use of cookies and data.
  • In Schweiz
  • Länderverzeichnis
  • Für 7 Tage
  • Wassertemperatur
  • Wetterkarte
  • Widgets
  • user-avatar
    Anmelden

    Stündliche Wetter Orleans

    Heute, 14 November, Donnerstag

    Zeit Temperatur Niederschläge Wind Luftdruck Luftfeuchtigkeit
    00:00 +5°C° 0.1 mm 7 m/S 736 mmHg 78%
    01:00 +4°C° 1.2 mm 6 m/S 735 mmHg 82%
    02:00 +5°C° 1.2 mm 5 m/S 735 mmHg 85%
    03:00 +5°C° 1.2 mm 4 m/S 735 mmHg 89%
    04:00 +4°C° 0 mm 4 m/S 735 mmHg 90%
    05:00 +3°C° 0 mm 3 m/S 735 mmHg 91%
    06:00 +3°C° 0 mm 3 m/S 736 mmHg 93%
    07:00 +3°C° 0 mm 3 m/S 736 mmHg 91%
    08:00 +4°C° 0 mm 3 m/S 737 mmHg 89%
    09:00 +4°C° 0 mm 4 m/S 738 mmHg 88%
    10:00 +5°C° 0 mm 3 m/S 738 mmHg 84%
    11:00 +7°C° 0 mm 3 m/S 738 mmHg 80%
    12:00 +7°C° 0 mm 2 m/S 738 mmHg 76%
    13:00 +7°C° 0 mm 2 m/S 738 mmHg 76%
    14:00 +8°C° 0 mm 2 m/S 738 mmHg 76%
    15:00 +9°C° 0 mm 1 m/S 738 mmHg 76%
    16:00 +8°C° 0 mm 1 m/S 738 mmHg 80%
    17:00 +6°C° 0 mm 2 m/S 738 mmHg 84%
    18:00 +5°C° 0 mm 2 m/S 738 mmHg 88%
    19:00 +5°C° 0 mm 2 m/S 739 mmHg 90%
    20:00 +4°C° 0 mm 2 m/S 739 mmHg 91%
    21:00 +4°C° 0 mm 2 m/S 739 mmHg 93%
    22:00 +4°C° 0 mm 2 m/S 739 mmHg 93%
    23:00 +4°C° 0 mm 2 m/S 739 mmHg 94%

    Morgen, 15 November, Freitag

    Zeit Temperatur Niederschläge Wind Luftdruck Luftfeuchtigkeit
    00:00 +4°C° 0 mm 2 m/S 739 mmHg 94%
    01:00 +4°C° 0.1 mm 2 m/S 739 mmHg 93%
    02:00 +3°C° 0.1 mm 3 m/S 739 mmHg 93%
    03:00 +3°C° 0.1 mm 3 m/S 739 mmHg 92%
    04:00 +3°C° 0.2 mm 3 m/S 739 mmHg 92%
    05:00 +3°C° 0.2 mm 3 m/S 739 mmHg 92%
    06:00 +3°C° 0.2 mm 3 m/S 739 mmHg 91%
    07:00 +3°C° 0.9 mm 3 m/S 739 mmHg 93%
    08:00 +3°C° 0.9 mm 3 m/S 740 mmHg 94%
    09:00 +3°C° 0.9 mm 3 m/S 740 mmHg 95%
    10:00 +3°C° 0.6 mm 3 m/S 740 mmHg 94%
    11:00 +3°C° 0.6 mm 3 m/S 740 mmHg 93%
    12:00 +3°C° 0.6 mm 3 m/S 740 mmHg 92%
    13:00 +3°C° 0.2 mm 3 m/S 740 mmHg 91%
    14:00 +4°C° 0.2 mm 3 m/S 740 mmHg 90%
    15:00 +4°C° 0.2 mm 3 m/S 740 mmHg 89%
    16:00 +5°C° 0.1 mm 2 m/S 740 mmHg 89%
    17:00 +4°C° 0.1 mm 2 m/S 740 mmHg 90%
    18:00 +4°C° 0.1 mm 2 m/S 741 mmHg 91%
    19:00 +4°C° 0.1 mm 2 m/S 741 mmHg 91%
    20:00 +4°C° 0.1 mm 2 m/S 741 mmHg 91%
    21:00 +4°C° 0.1 mm 3 m/S 742 mmHg 90%
    22:00 +4°C° 0.1 mm 3 m/S 742 mmHg 90%
    23:00 +4°C° 0.1 mm 3 m/S 742 mmHg 90%

    übermorgen, 16 November, Samstag

    Zeit Temperatur Niederschläge Wind Luftdruck Luftfeuchtigkeit
    00:00 +4°C° 0.1 mm 3 m/S 743 mmHg 90%
    01:00 +4°C° 0 mm 3 m/S 743 mmHg 90%
    02:00 +4°C° 0 mm 3 m/S 743 mmHg 91%
    03:00 +4°C° 0 mm 3 m/S 743 mmHg 91%
    04:00 +4°C° 0.1 mm 3 m/S 744 mmHg 91%
    05:00 +4°C° 0.1 mm 3 m/S 744 mmHg 91%
    06:00 +4°C° 0.1 mm 3 m/S 744 mmHg 91%
    07:00 +4°C° 0 mm 3 m/S 745 mmHg 89%
    08:00 +4°C° 0 mm 3 m/S 746 mmHg 87%
    09:00 +4°C° 0 mm 3 m/S 747 mmHg 86%
    10:00 +5°C° 0 mm 3 m/S 747 mmHg 81%
    11:00 +5°C° 0 mm 3 m/S 747 mmHg 77%
    12:00 +7°C° 0 mm 2 m/S 747 mmHg 73%
    13:00 +7°C° 0 mm 2 m/S 747 mmHg 73%
    14:00 +7°C° 0 mm 2 m/S 747 mmHg 74%
    15:00 +8°C° 0 mm 1 m/S 748 mmHg 75%
    16:00 +8°C° 0 mm 1 m/S 748 mmHg 77%
    17:00 +7°C° 0 mm 1 m/S 748 mmHg 79%
    18:00 +7°C° 0 mm 1 m/S 749 mmHg 81%
    19:00 +6°C° 0 mm 1 m/S 749 mmHg 83%
    20:00 +6°C° 0 mm 1 m/S 749 mmHg 85%
    21:00 +5°C° 0 mm 1 m/S 749 mmHg 87%
    22:00 +5°C° 0 mm 1 m/S 749 mmHg 87%
    23:00 +6°C° 0 mm 1 m/S 749 mmHg 86%

    17 November, Sonntag

    Zeit Temperatur Niederschläge Wind Luftdruck Luftfeuchtigkeit
    00:00 +6°C° 0 mm 1 m/S 750 mmHg 86%
    01:00 +6°C° 0 mm 1 m/S 749 mmHg 86%
    02:00 +6°C° 0 mm 1 m/S 749 mmHg 87%
    03:00 +4°C° 0 mm 0 m/S 749 mmHg 87%
    04:00 +4°C° 0 mm 0 m/S 749 mmHg 88%
    05:00 +4°C° 0 mm 0 m/S 749 mmHg 88%
    06:00 +4°C° 0 mm 0 m/S 748 mmHg 89%
    07:00 +4°C° 0 mm 0 m/S 748 mmHg 87%
    08:00 +5°C° 0 mm 0 m/S 748 mmHg 85%
    09:00 +5°C° 0 mm 0 m/S 748 mmHg 83%
    10:00 +6°C° 0 mm 0 m/S 748 mmHg 81%
    11:00 +6°C° 0 mm 0 m/S 748 mmHg 78%
    12:00 +6°C° 0 mm 0 m/S 748 mmHg 76%
    13:00 +8°C° 0 mm 1 m/S 748 mmHg 76%
    14:00 +8°C° 0 mm 1 m/S 748 mmHg 75%
    15:00 +8°C° 0 mm 1 m/S 747 mmHg 75%
    16:00 +7°C° 0 mm 1 m/S 747 mmHg 78%
    17:00 +6°C° 0 mm 1 m/S 747 mmHg 82%
    18:00 +4°C° 0 mm 2 m/S 747 mmHg 85%
    19:00 +5°C° 0 mm 1 m/S 747 mmHg 86%
    20:00 +5°C° 0 mm 1 m/S 747 mmHg 86%
    21:00 +4°C° 0 mm 1 m/S 747 mmHg 87%
    22:00 +4°C° 0 mm 1 m/S 747 mmHg 88%
    23:00 +3°C° 0 mm 2 m/S 747 mmHg 89%

    18 November, Montag

    Zeit Temperatur Niederschläge Wind Luftdruck Luftfeuchtigkeit
    00:00 +3°C° 0 mm 2 m/S 747 mmHg 89%
    01:00 +3°C° 0.5 mm 2 m/S 747 mmHg 90%
    02:00 +2°C° 0.5 mm 3 m/S 747 mmHg 91%
    03:00 +3°C° 0.5 mm 3 m/S 746 mmHg 92%
    04:00 +3°C° 0.5 mm 3 m/S 747 mmHg 93%
    05:00 +4°C° 0.5 mm 4 m/S 747 mmHg 93%
    06:00 +4°C° 0.5 mm 4 m/S 747 mmHg 93%
    07:00 +4°C° 0.2 mm 4 m/S 747 mmHg 93%
    08:00 +5°C° 0.2 mm 4 m/S 747 mmHg 92%
    09:00 +5°C° 0.2 mm 4 m/S 747 mmHg 91%
    10:00 +6°C° 0 mm 4 m/S 747 mmHg 89%
    11:00 +6°C° 0 mm 4 m/S 747 mmHg 87%
    12:00 +7°C° 0 mm 3 m/S 747 mmHg 84%
    13:00 +7°C° 0.1 mm 3 m/S 748 mmHg 84%
    14:00 +6°C° 0.1 mm 4 m/S 748 mmHg 83%
    15:00 +6°C° 0.1 mm 4 m/S 748 mmHg 83%
    16:00 +7°C° 0 mm 3 m/S 748 mmHg 85%
    17:00 +7°C° 0 mm 3 m/S 748 mmHg 86%
    18:00 +6°C° 0 mm 2 m/S 749 mmHg 88%
    19:00 +6°C° 0 mm 2 m/S 749 mmHg 88%
    20:00 +5°C° 0 mm 2 m/S 749 mmHg 89%
    21:00 +5°C° 0 mm 2 m/S 749 mmHg 89%
    22:00 +5°C° 0 mm 2 m/S 750 mmHg 89%
    23:00 +4°C° 0 mm 2 m/S 750 mmHg 89%

    19 November, Dienstag

    Zeit Temperatur Niederschläge Wind Luftdruck Luftfeuchtigkeit
    00:00 +4°C° 0 mm 2 m/S 750 mmHg 89%
    01:00 +3°C° 0 mm 2 m/S 750 mmHg 91%
    02:00 +3°C° 0 mm 2 m/S 749 mmHg 92%
    03:00 +2°C° 0 mm 2 m/S 749 mmHg 94%
    04:00 +2°C° 0 mm 2 m/S 749 mmHg 94%
    05:00 +2°C° 0 mm 2 m/S 749 mmHg 94%
    06:00 +2°C° 0 mm 3 m/S 749 mmHg 94%
    07:00 +2°C° 0 mm 3 m/S 748 mmHg 91%
    08:00 +3°C° 0 mm 4 m/S 748 mmHg 87%
    09:00 +4°C° 0 mm 4 m/S 748 mmHg 83%
    10:00 +5°C° 0 mm 5 m/S 747 mmHg 79%
    11:00 +6°C° 0 mm 5 m/S 747 mmHg 76%
    12:00 +7°C° 0 mm 5 m/S 746 mmHg 72%
    13:00 +7°C° 0 mm 5 m/S 746 mmHg 72%
    14:00 +7°C° 0 mm 5 m/S 745 mmHg 73%
    15:00 +7°C° 0 mm 4 m/S 745 mmHg 74%
    16:00 +7°C° 0.1 mm 5 m/S 744 mmHg 77%
    17:00 +6°C° 0.1 mm 5 m/S 744 mmHg 80%
    18:00 +6°C° 0.1 mm 5 m/S 744 mmHg 83%
    19:00 +6°C° 0.3 mm 5 m/S 744 mmHg 83%
    20:00 +6°C° 0.3 mm 5 m/S 743 mmHg 83%
    21:00 +6°C° 0.3 mm 5 m/S 743 mmHg 83%
    22:00 +6°C° 0.3 mm 5 m/S 743 mmHg 86%
    23:00 +6°C° 0.3 mm 5 m/S 743 mmHg 88%
    Mehr zeigen